Vorticity
9 11 19 18 8 5 9 13 9 2 1 3 5 7 8 8 9 8 10 13 11 3 -2 9 17 16 22 24 20 20 14 9 10 7 4 2 2 3 -2 -6 -4 11 20 15 11 8 4 3 0 2 11 12 3 -3 2 9 13 16 13 14 13 11 15 12 2 -2 2 5 5 4 4 4 3 3 3 -2 2 9 8 7 6 6 6 5 6 7
8 11 19 19 11 8 8 11 14 9 4 3 2 3 4 9 9 7 15 24 24 13 1 4 8 18 31 14 6 26 19 7 10 9 8 2 -1 3 1 -1 -3 5 21 22 14 2 -3 -2 -1 9 18 18 14 3 -1 11 16 9 9 15 15 15 20 21 8 -3 1 5 4 6 4 3 3 3 3 0 3 8 8 8 7 7 8 6 7 9
8 12 16 14 10 10 8 9 14 13 12 9 5 4 4 7 7 8 18 18 11 15 15 8 5 15 20 -7 -11 23 22 8 9 8 8 5 5 11 12 7 -6 -2 20 19 3 -8 -8 -3 -1 9 9 6 21 22 10 10 9 7 8 4 4 8 6 14 18 4 2 6 3 5 6 4 4 4 5 5 6 8 6 7 6 6 8 9 9 9
7 10 12 12 11 10 9 10 11 11 14 12 10 11 8 7 8 11 22 17 3 11 18 10 6 7 7 -5 -6 19 26 12 5 3 6 5 7 13 12 3 -6 2 13 1 -10 -7 -2 -2 1 14 11 -7 1 19 27 21 5 4 6 -4 0 12 8 11 20 10 2 5 6 7 8 8 8 6 5 7 8 7 4 5 6 7 9 10 10 10
9 9 9 13 14 11 9 9 10 12 13 13 14 14 11 10 12 16 27 24 5 7 15 7 2 5 8 6 -1 7 20 13 -1 -4 5 8 7 12 14 3 -5 -1 0 -4 -3 0 5 7 7 13 13 2 -1 6 20 26 13 3 2 5 11 17 20 19 16 10 5 5 7 8 9 9 8 5 7 14 12 3 1 5 8 8 9 11 12 11
10 8 7 10 12 13 12 9 9 11 11 12 11 11 14 13 15 20 21 15 3 6 15 3 -1 11 10 1 -4 -3 7 13 5 -5 4 16 12 12 16 5 -2 -2 -2 2 3 0 6 11 11 9 7 9 13 9 3 4 14 20 14 12 8 3 11 17 16 15 9 6 6 6 7 8 7 6 9 13 4 -5 -0 5 7 8 9 11 11 10
8 8 10 10 9 11 13 12 10 10 10 11 12 13 15 15 18 23 16 9 6 9 15 1 -5 10 12 3 2 -1 -2 11 18 3 -2 7 2 -1 5 1 -1 0 -2 -1 -0 3 7 3 6 10 7 8 10 11 11 6 13 25 16 7 4 2 8 15 20 21 11 4 5 5 7 9 8 8 9 7 2 2 8 7 6 8 9 10 10 9
10 8 9 12 12 9 10 13 11 10 9 7 11 12 14 23 25 15 9 14 10 4 14 12 1 7 13 8 1 -3 -3 10 26 13 -8 -5 1 -1 1 1 0 -1 -2 1 6 10 5 -2 8 13 11 11 4 3 15 11 8 19 20 15 13 9 12 16 18 20 15 9 8 7 10 11 11 12 10 10 13 12 9 8 9 10 10 10 9 9
12 10 11 12 11 10 12 14 11 11 13 13 19 17 15 28 26 4 1 12 5 -2 12 19 10 7 12 9 2 3 4 6 21 23 3 -5 1 2 -0 1 3 4 5 7 8 8 1 1 13 15 10 10 7 6 8 8 24 42 36 29 22 11 10 13 11 14 17 15 12 10 9 9 8 7 6 9 14 10 7 10 13 12 12 12 11 10
11 12 11 8 5 8 14 16 11 11 15 13 17 22 23 27 19 2 1 7 6 4 5 6 6 3 1 1 3 11 16 10 13 23 15 -0 -2 1 1 4 6 8 9 4 -2 2 8 13 17 12 7 10 12 10 8 17 33 24 5 13 26 20 12 5 5 12 16 17 17 13 8 7 7 7 8 13 14 9 8 11 12 12 13 11 9 7
11 8 6 7 8 8 8 14 13 10 13 7 4 17 30 31 18 2 -2 1 9 11 2 -1 3 2 -4 -6 -7 -2 6 8 7 13 11 0 0 2 2 5 6 3 2 -1 1 12 18 16 14 9 6 12 15 11 14 26 14 -18 -19 11 26 26 23 13 8 11 10 9 15 16 13 10 7 6 10 15 15 10 9 10 10 12 11 8 6 5
9 8 11 12 13 9 3 9 10 6 10 7 4 15 26 32 21 1 -6 -3 6 10 3 2 8 10 8 4 -2 -8 -9 -6 -5 -3 -4 -6 3 6 1 0 -1 -1 1 2 11 17 9 4 10 12 8 7 11 12 14 19 8 -3 15 31 23 17 16 13 11 7 -0 -0 6 16 25 20 6 2 9 14 12 8 7 8 9 10 8 5 6 5
12 12 15 13 13 10 6 8 3 0 9 8 8 15 18 29 24 2 -6 -5 1 8 2 -1 4 6 10 14 15 12 9 8 6 7 7 5 5 4 0 0 1 4 5 6 12 8 3 11 16 14 10 7 14 17 9 7 11 17 21 15 11 13 8 10 15 6 -3 -1 4 12 22 17 0 -1 10 12 10 7 6 7 8 8 6 5 6 5
15 12 12 12 11 6 7 17 13 5 10 14 20 19 15 27 23 0 -4 -3 -0 5 0 0 6 7 9 15 20 26 29 24 16 23 29 17 3 0 3 6 5 3 1 8 14 7 8 17 13 8 12 14 18 17 10 12 16 17 10 -5 -2 13 17 18 15 5 1 6 10 10 12 7 -3 -1 3 1 4 8 6 6 6 5 5 5 7 7
11 9 9 12 13 7 6 20 28 18 5 7 23 21 13 25 23 3 -4 -3 2 6 0 -2 4 7 8 6 6 17 30 24 11 20 29 12 -2 1 6 6 2 -3 -1 9 15 11 12 12 6 7 12 15 20 15 10 14 14 15 14 4 4 17 21 16 8 5 7 9 11 10 8 7 5 7 8 3 5 10 10 7 3 4 6 6 6 8
9 10 8 11 15 9 -3 -2 20 27 8 -0 15 19 11 15 18 12 5 4 12 15 6 -1 0 4 3 -3 -7 1 19 21 7 8 14 8 5 6 4 5 4 1 5 15 19 18 17 13 8 9 10 12 17 12 8 12 13 11 10 7 14 22 18 12 8 8 9 8 9 9 8 12 13 13 14 11 9 13 14 10 5 4 5 5 6 7
9 5 3 9 11 7 -0 -1 16 27 13 4 13 19 15 12 12 12 9 11 18 17 6 -2 1 8 5 -3 -8 -5 12 21 9 -0 0 1 3 2 1 7 8 4 6 11 13 13 11 12 14 15 12 12 16 15 10 8 6 8 10 8 14 20 14 9 8 9 10 9 7 6 6 7 10 12 14 15 14 13 12 11 9 8 5 5 5 5
10 6 5 11 10 7 7 7 15 19 7 3 12 13 11 16 18 6 -1 8 15 14 10 3 2 8 9 6 1 -2 8 16 10 8 7 2 1 -0 4 12 10 3 1 1 5 8 5 7 12 15 15 14 16 15 9 7 6 10 13 5 5 17 15 6 6 6 7 9 8 7 6 1 -2 3 11 16 15 10 7 6 7 9 10 8 3 1
8 10 9 9 8 8 7 4 12 20 12 4 9 11 5 16 29 15 -3 3 7 3 7 7 8 12 12 13 13 7 8 8 7 15 17 11 9 8 9 12 9 7 6 1 0 1 0 3 4 13 31 32 20 11 7 6 6 7 12 5 4 15 11 0 6 6 1 4 6 6 8 5 1 4 9 14 16 13 6 1 0 4 8 11 9 5
4 8 10 7 4 5 6 5 7 14 15 7 3 8 6 9 25 23 6 -0 1 2 3 1 3 9 11 13 14 13 12 7 4 13 15 11 11 11 11 10 7 12 13 5 2 1 1 5 1 10 36 33 9 2 3 3 1 1 8 8 4 10 12 4 5 9 7 5 2 2 5 6 7 8 7 6 11 16 14 8 3 0 -0 6 11 10
5 4 6 7 4 2 3 6 7 8 13 10 2 3 7 4 7 13 10 5 5 7 11 12 5 0 6 11 8 10 14 9 4 5 8 11 10 6 4 3 5 10 7 8 14 8 1 6 9 19 32 20 5 7 5 -0 -1 -2 5 10 8 16 22 7 -5 3 10 8 4 1 1 1 4 5 3 -2 -3 -0 8 13 11 7 5 6 9 10
7 3 4 5 4 4 3 4 10 11 9 9 6 2 4 6 3 4 6 8 9 6 7 21 20 5 4 9 4 6 11 9 7 8 13 20 17 11 8 7 11 12 8 11 11 4 12 23 23 30 31 17 11 11 3 -1 2 11 23 20 10 13 12 -4 -8 3 12 13 10 3 0 3 4 4 3 0 -2 -4 2 9 10 10 11 11 12 12
5 2 4 6 5 4 4 4 10 12 6 5 10 6 2 5 7 8 9 5 7 8 5 13 19 10 7 10 7 7 9 8 7 7 9 12 13 14 14 11 10 6 7 12 7 6 16 12 8 22 24 8 -1 -6 -4 3 1 6 11 -6 -16 -4 0 -3 3 9 10 12 10 5 9 13 9 9 11 10 8 8 9 11 9 10 18 19 14 8
6 5 6 7 6 4 2 4 10 15 10 5 8 8 3 2 2 5 10 8 4 6 4 6 10 7 6 11 13 13 13 12 9 3 -1 0 6 8 4 6 12 12 13 16 15 16 12 0 7 22 15 4 4 2 6 9 1 4 7 -5 -6 5 7 7 10 8 8 7 5 8 15 17 8 4 7 9 12 16 17 14 8 5 10 12 4 -2
8 6 8 7 5 4 3 4 8 14 12 4 3 7 6 4 2 0 3 6 7 7 6 4 5 5 3 6 10 12 13 11 8 10 8 5 9 7 -1 5 17 21 21 20 19 20 14 8 8 -3 -17 -11 2 4 4 2 1 9 13 8 9 11 14 14 8 9 13 9 10 16 16 17 12 6 11 10 8 16 20 18 16 9 5 6 3 3
9 2 7 12 7 4 4 3 5 10 14 9 1 2 5 2 1 2 2 3 5 7 7 6 5 6 5 3 3 5 9 8 2 5 9 6 7 9 6 9 12 10 10 14 19 17 13 14 11 -3 -6 2 3 -0 -2 -2 2 6 3 2 8 12 17 14 4 9 15 9 13 19 15 13 9 9 21 12 -1 9 15 15 20 14 4 5 5 5
15 4 2 7 8 7 5 4 2 2 13 22 10 -2 4 6 1 2 4 6 7 4 7 11 9 9 11 10 10 8 9 9 3 -0 1 -2 -3 4 12 16 16 12 9 9 11 12 13 18 16 12 15 17 13 10 11 16 24 28 22 17 16 15 15 14 13 17 15 12 18 19 14 16 11 9 15 6 -1 11 12 9 18 13 4 6 6 6
21 14 6 3 4 8 8 8 8 1 2 19 22 5 -0 2 2 4 5 6 9 7 7 10 5 3 7 7 7 7 3 4 7 8 10 8 5 7 9 6 3 3 8 11 9 9 12 13 9 7 10 12 15 18 21 21 20 25 28 19 11 13 15 15 12 11 14 18 15 4 -1 10 21 22 19 10 8 14 9 7 13 12 10 13 11 10
17 15 13 8 1 2 9 11 12 9 1 6 17 15 9 6 1 2 5 3 5 6 6 9 4 2 5 2 -2 -1 -4 -5 -1 4 8 13 15 14 10 7 7 10 16 23 21 17 15 14 13 8 -3 -7 1 11 12 3 -11 -7 3 -2 -5 8 15 8 5 16 26 13 -7 -7 3 14 21 17 7 1 3 10 18 19 11 6 11 16 14 13
22 17 18 23 10 -5 -0 8 5 6 8 4 2 4 14 19 9 0 1 -0 -0 0 1 5 7 6 8 8 7 7 7 7 7 3 1 2 7 10 11 14 17 15 15 16 13 10 8 7 9 5 -6 -6 6 11 6 0 -3 -0 2 -0 2 12 12 2 6 24 20 -7 -12 14 29 23 16 4 -6 0 7 9 18 25 13 -2 -0 11 16 13
25 20 21 43 46 11 -10 -1 3 1 6 11 8 3 6 19 20 11 4 1 1 1 -1 -1 2 3 5 9 11 9 6 7 7 6 6 7 9 11 10 10 7 2 3 7 7 5 4 2 2 2 2 6 13 15 10 9 12 11 10 10 10 11 7 1 9 17 5 -8 10 30 21 4 1 -1 1 14 16 2 2 17 20 6 -2 7 15 12
21 24 19 36 61 46 15 10 14 8 1 5 11 9 3 9 14 8 3 4 3 -0 1 3 1 0 1 0 1 2 4 8 9 7 8 11 9 3 1 11 18 14 10 8 6 7 9 9 10 10 11 10 8 10 10 8 8 9 9 9 6 5 6 5 7 9 3 2 11 9 -4 -7 1 5 8 14 11 3 8 18 19 9 -3 -1 10 11
3 13 15 19 32 37 30 29 35 34 27 23 24 21 15 13 9 2 4 15 15 5 3 6 4 5 7 2 -2 0 2 3 3 4 9 13 14 11 7 10 12 8 7 8 7 8 8 8 9 9 10 11 9 8 7 3 3 4 5 7 7 6 5 4 4 5 6 8 6 2 0 3 7 8 6 6 2 2 9 6 -2 -5 -8 -1 18 20
-2 -2 5 16 15 11 17 28 32 27 21 25 30 26 20 19 18 14 15 21 24 20 16 10 1 -1 3 3 1 2 3 5 12 19 20 15 12 11 9 5 -4 -10 -4 2 4 9 12 11 11 9 8 10 10 12 17 16 11 8 6 5 6 6 4 3 4 3 4 6 5 5 5 3 4 4 2 4 4 1 3 0 -4 -0 1 9 23 16
10 1 -7 8 14 5 7 19 25 19 12 13 21 20 15 15 17 22 25 24 24 23 21 15 5 2 11 16 11 6 5 7 13 17 12 5 5 5 1 2 3 0 1 2 2 8 10 8 7 8 13 18 13 6 5 7 8 10 11 10 12 12 10 6 5 1 -0 2 4 6 7 4 3 4 2 3 5 5 7 6 6 8 6 5 6 -2
13 10 -3 1 8 0 -5 2 13 21 20 15 14 19 22 21 16 14 17 21 24 22 20 19 15 14 21 25 19 15 12 7 8 13 16 15 21 25 20 15 15 11 8 8 10 10 8 4 1 -1 4 13 15 9 3 2 6 9 9 8 9 9 7 10 13 9 1 1 5 7 8 5 2 4 6 4 3 4 5 4 5 6 6 5 4 1
4 13 11 7 8 4 1 3 5 7 11 12 11 7 9 17 24 20 12 12 19 22 22 22 20 17 14 8 4 3 3 9 20 28 29 23 21 22 22 23 28 27 19 13 12 11 9 8 7 2 -3 -7 -9 -7 -5 -3 2 4 1 -1 1 1 3 8 14 11 3 2 4 3 3 3 3 5 6 4 4 5 4 3 4 4 4 5 6 6
4 10 13 12 15 15 13 15 15 6 1 9 14 5 -7 -7 7 18 18 15 12 13 16 18 18 20 17 11 12 9 -0 2 11 8 1 -1 -3 -8 -11 -10 -2 5 5 4 9 12 10 8 7 7 8 3 -4 -6 -5 -2 1 0 -4 -2 2 3 3 6 8 4 -3 -5 -1 2 3 2 2 3 3 2 3 5 4 4 4 4 4 5 5 6
11 7 8 10 15 18 12 13 19 13 3 3 10 14 6 -8 -12 -2 9 11 7 5 8 12 15 21 23 19 22 26 22 17 11 1 -5 -3 -2 -2 -2 -3 -4 -1 -1 -1 5 10 12 12 11 8 7 7 6 7 6 5 4 1 -2 -1 -0 -4 -6 -2 4 7 7 8 13 17 16 11 7 6 5 2 1 2 2 1 0 1 2 3 6 8
8 7 8 7 7 11 9 8 14 16 16 16 11 10 11 5 -0 2 5 9 16 15 10 9 11 16 21 22 20 24 28 25 17 11 8 8 8 8 8 6 5 6 5 3 2 3 5 8 10 10 8 6 5 6 7 7 6 5 4 4 1 -2 -4 -4 -3 0 6 12 16 19 23 23 22 20 18 15 11 9 7 5 5 7 7 8 8 8
12 10 8 4 2 3 3 4 6 5 8 15 15 14 14 10 7 6 1 2 12 17 15 15 10 3 5 11 12 13 18 21 19 17 16 14 14 14 12 12 12 13 14 15 15 13 10 8 7 7 8 7 6 4 5 5 5 5 5 5 3 3 4 3 1 -2 -4 -4 -5 -5 -3 1 4 8 10 12 12 13 14 15 16 16 14 13 12 10
13 13 11 9 10 12 10 9 11 8 5 6 7 10 12 10 9 11 8 2 -2 -2 2 9 11 9 9 10 7 3 2 4 5 6 7 8 8 9 12 15 16 16 17 19 20 20 19 18 16 15 13 13 13 11 9 8 7 6 5 5 5 5 5 5 5 3 -1 -3 -4 -5 -5 -4 -3 -3 -3 -1 2 5 8 10 10 9 6 5 5 6
9 11 12 11 13 17 18 15 15 17 20 18 13 9 8 8 7 8 9 8 3 -2 -3 -3 -2 2 6 7 5 3 1 1 3 2 3 6 8 9 9 8 7 8 8 8 10 12 13 12 12 13 14 14 15 16 16 16 16 16 14 13 12 11 10 10 9 8 7 7 7 9 10 11 10 8 7 7 8 9 9 9 8 7 5 3 2 2
15 15 15 15 11 8 5 6 6 6 8 10 11 11 11 10 9 8 8 9 9 9 10 9 6 5 4 1 0 0 -1 1 5 5 5 6 6 6 5 6 6 6 5 5 5 6 6 7 7 6 6 7 7 8 10 11 13 14 15 15 14 14 14 14 13 13 13 13 13 13 12 11 11 11 12 11 11 10 11 11 11 11 10 10 10 10
17 16 16 16 15 10 4 5 7 5 2 1 3 6 9 9 10 11 12 11 10 9 9 9 9 10 12 9 5 3 2 1 1 3 5 6 5 3 3 4 6 6 6 7 8 8 9 9 8 8 8 8 7 7 7 7 7 7 7 8 8 8 8 7 7 7 8 8 9 9 8 9 9 9 9 8 7 7 7 7 7 8 8 8 9 9
14 12 11 11 12 12 10 9 9 8 9 11 11 10 11 11 10 11 11 12 13 12 12 12 10 9 9 10 10 10 10 10 7 5 5 6 7 8 8 8 8 7 6 7 7 8 9 8 8 9 8 7 7 7 8 8 7 6 6 6 6 6 6 5 6 6 6 6 5 5 5 6 7 7 6 6 6 6 6 6 4 4 4 3 4 4
16 16 16 15 15 16 15 15 15 13 13 13 11 9 8 7 8 9 8 9 11 13 14 14 13 13 11 10 9 8 8 9 7 6 6 7 9 10 10 9 9 8 8 9 8 7 8 9 7 6 5 5 5 5 4 5 5 5 5 6 6 7 8 8 8 8 7 6 6 7 6 6 5 5 5 5 6 5 4 2 1 1 2 3 5 6
14 15 14 13 15 16 15 15 16 16 16 16 16 16 15 12 11 10 9 9 10 11 11 10 12 15 14 10 8 7 5 5 6 7 7 5 5 7 9 9 8 7 7 8 8 7 8 9 7 4 4 6 6 4 3 4 5 5 6 6 6 6 6 6 6 6 6 7 7 6 4 2 3 4 4 4 4 3 2 2 2 3 5 6 7 8
12 12 10 9 11 12 11 11 11 11 12 14 14 14 15 15 15 14 13 12 12 11 11 10 10 10 8 7 9 10 8 7 7 7 4 -0 -2 1 4 5 5 6 6 6 7 7 7 7 6 5 5 4 3 2 2 3 3 4 4 4 5 5 6 6 6 6 5 6 5 4 3 3 4 4 3 3 4 3 3 3 3 5 8 9 9 8
10 10 10 11 13 14 15 15 14 12 12 14 14 14 13 13 14 14 13 14 15 15 15 12 10 6 2 1 1 2 2 3 3 2 1 0 -1 -1 -0 1 2 2 3 4 5 6 6 7 6 6 5 5 5 4 4 4 4 4 4 4 4 5 5 5 5 5 5 4 4 3 3 2 3 3 3 5 6 6 6 6 6 8 8 8 9 10
10 10 12 13 13 14 14 14 15 14 14 15 16 16 14 13 13 14 14 14 15 16 18 18 19 17 15 11 9 8 8 7 6 5 6 7 8 7 7 7 7 7 6 6 5 5 7 8 8 8 8 8 9 9 9 9 9 8 7 7 7 7 6 6 5 5 5 4 4 4 3 3 4 5 6 6 6 6 7 9 12 13 13 13 13 15
Height
5724 5725 5727 5730 5732 5733 5732 5733 5735 5737 5737 5738 5739 5740 5742 5743 5745 5747 5749 5750 5749 5748 5749 5751 5753 5756 5759 5760 5762 5763 5764 5763 5761 5761 5763 5767 5769 5771 5774 5775 5776 5777 5777 5777 5778 5777 5777 5776 5775 5776 5778 5778 5776 5778 5781 5782 5783 5784 5783 5782 5783 5785 5787 5788 5789 5789 5789 5789 5790 5790 5791 5792 5793 5793 5794 5795 5796 5796 5797 5797 5797 5798 5798 5798 5798 5798
5721 5723 5726 5728 5728 5728 5729 5730 5731 5733 5734 5735 5736 5738 5739 5741 5744 5746 5748 5748 5746 5746 5747 5748 5749 5752 5755 5757 5759 5760 5761 5761 5760 5759 5761 5764 5767 5769 5772 5774 5774 5774 5773 5773 5773 5773 5775 5777 5777 5777 5776 5775 5775 5776 5778 5780 5780 5781 5780 5780 5781 5783 5784 5786 5786 5786 5786 5787 5788 5788 5789 5790 5791 5792 5793 5793 5794 5795 5795 5796 5796 5796 5796 5796 5796 5796
5720 5722 5724 5724 5724 5725 5726 5728 5729 5731 5732 5733 5734 5735 5737 5739 5741 5744 5747 5745 5743 5743 5745 5746 5746 5749 5752 5754 5756 5758 5759 5759 5758 5757 5759 5762 5765 5768 5770 5772 5772 5771 5770 5769 5770 5772 5773 5774 5773 5772 5771 5772 5773 5772 5774 5776 5777 5778 5778 5779 5780 5781 5783 5783 5783 5784 5785 5785 5786 5787 5787 5788 5789 5790 5791 5792 5793 5793 5794 5794 5794 5795 5795 5795 5795 5795
5719 5720 5720 5720 5721 5723 5724 5725 5726 5728 5729 5730 5732 5733 5735 5738 5739 5741 5744 5743 5741 5742 5743 5745 5745 5747 5750 5751 5753 5755 5757 5758 5757 5756 5758 5760 5763 5766 5768 5769 5768 5767 5767 5767 5769 5771 5771 5770 5769 5770 5769 5769 5770 5771 5771 5773 5775 5776 5777 5778 5779 5780 5780 5781 5781 5782 5783 5784 5785 5786 5786 5787 5788 5789 5789 5790 5791 5791 5792 5793 5793 5793 5794 5794 5794 5794
5717 5717 5717 5718 5720 5721 5722 5723 5724 5725 5727 5728 5730 5731 5733 5736 5736 5738 5740 5739 5740 5740 5741 5743 5744 5745 5747 5748 5750 5753 5755 5756 5755 5755 5758 5760 5762 5763 5764 5765 5765 5765 5765 5766 5769 5770 5769 5769 5768 5768 5768 5767 5768 5770 5769 5771 5773 5775 5775 5776 5777 5777 5777 5778 5779 5780 5782 5783 5784 5785 5785 5786 5787 5787 5788 5788 5789 5789 5790 5791 5791 5792 5792 5792 5792 5792
5714 5714 5715 5716 5717 5718 5719 5720 5722 5723 5724 5726 5727 5729 5731 5733 5733 5735 5736 5736 5737 5738 5739 5741 5742 5742 5745 5746 5749 5751 5753 5754 5754 5754 5756 5758 5759 5760 5761 5762 5763 5763 5764 5766 5767 5766 5766 5768 5767 5766 5766 5766 5766 5767 5768 5769 5771 5772 5773 5774 5775 5775 5775 5776 5777 5778 5780 5781 5782 5783 5784 5785 5785 5785 5786 5787 5787 5788 5788 5789 5790 5790 5790 5790 5790 5790
5711 5711 5713 5714 5714 5716 5717 5718 5719 5720 5722 5723 5725 5726 5728 5730 5731 5732 5733 5733 5735 5736 5737 5739 5739 5740 5742 5745 5747 5749 5750 5751 5752 5752 5754 5756 5757 5757 5759 5760 5761 5762 5763 5764 5764 5764 5764 5766 5766 5765 5764 5765 5765 5765 5765 5767 5768 5769 5770 5770 5771 5772 5773 5774 5775 5776 5778 5779 5780 5781 5782 5782 5783 5784 5784 5785 5786 5786 5787 5787 5788 5789 5789 5788 5788 5789
5708 5709 5711 5712 5712 5713 5715 5716 5717 5717 5719 5721 5723 5724 5725 5727 5728 5730 5731 5731 5732 5733 5735 5736 5736 5737 5740 5743 5745 5747 5749 5749 5749 5749 5751 5754 5754 5755 5757 5758 5759 5761 5762 5762 5762 5761 5762 5763 5764 5763 5763 5764 5764 5764 5764 5765 5765 5766 5767 5767 5768 5769 5770 5772 5773 5774 5775 5776 5777 5778 5779 5780 5781 5781 5782 5783 5784 5784 5785 5787 5788 5788 5788 5788 5787 5787
5706 5707 5709 5709 5710 5711 5713 5714 5714 5715 5716 5718 5719 5720 5722 5724 5725 5727 5728 5729 5730 5731 5732 5734 5734 5736 5739 5741 5743 5745 5747 5748 5747 5747 5749 5751 5751 5753 5755 5756 5758 5759 5760 5760 5761 5760 5760 5760 5761 5762 5762 5762 5763 5763 5763 5763 5763 5763 5764 5765 5766 5767 5768 5769 5770 5771 5772 5773 5774 5775 5776 5777 5778 5779 5779 5780 5781 5782 5784 5786 5787 5788 5788 5787 5787 5786
5704 5705 5706 5706 5707 5709 5711 5712 5712 5713 5714 5715 5716 5717 5719 5720 5722 5724 5726 5727 5728 5728 5730 5732 5733 5734 5737 5740 5741 5743 5744 5746 5746 5746 5747 5747 5749 5751 5753 5755 5756 5758 5758 5758 5758 5758 5757 5758 5759 5760 5761 5761 5762 5762 5761 5762 5762 5762 5763 5764 5765 5766 5766 5767 5768 5769 5769 5770 5771 5772 5773 5774 5775 5776 5777 5778 5779 5780 5782 5784 5785 5786 5787 5787 5787 5786
5702 5702 5703 5703 5704 5706 5708 5709 5710 5711 5712 5713 5714 5714 5716 5717 5719 5721 5724 5726 5726 5726 5729 5731 5731 5732 5735 5737 5739 5741 5742 5744 5744 5744 5745 5745 5747 5749 5751 5753 5755 5755 5755 5755 5756 5756 5756 5756 5757 5757 5759 5760 5760 5760 5759 5760 5761 5761 5762 5762 5763 5763 5764 5766 5766 5767 5768 5769 5770 5771 5771 5772 5774 5775 5775 5776 5777 5778 5780 5781 5783 5784 5786 5786 5786 5785
5699 5700 5701 5702 5703 5704 5705 5707 5708 5709 5710 5711 5711 5712 5714 5715 5717 5719 5722 5723 5723 5724 5727 5729 5729 5730 5732 5735 5737 5739 5740 5741 5742 5742 5742 5743 5745 5747 5750 5752 5753 5753 5754 5754 5754 5754 5754 5754 5754 5755 5756 5757 5758 5758 5758 5759 5760 5761 5760 5760 5761 5762 5763 5764 5765 5766 5767 5768 5768 5769 5769 5770 5772 5773 5774 5775 5775 5776 5777 5779 5780 5782 5784 5784 5784 5784
5696 5697 5699 5700 5701 5702 5703 5705 5706 5708 5708 5709 5710 5711 5712 5714 5715 5717 5720 5720 5721 5723 5726 5727 5728 5729 5731 5733 5735 5736 5737 5737 5738 5739 5739 5740 5742 5746 5749 5750 5751 5751 5752 5752 5752 5752 5752 5752 5752 5753 5754 5755 5755 5756 5757 5758 5759 5760 5760 5760 5761 5762 5763 5764 5764 5765 5765 5766 5767 5767 5768 5769 5770 5772 5773 5774 5774 5775 5776 5777 5778 5780 5781 5782 5782 5782
5693 5695 5696 5697 5699 5700 5702 5703 5704 5706 5708 5708 5709 5709 5711 5712 5714 5715 5717 5718 5719 5721 5724 5726 5726 5727 5728 5730 5731 5732 5733 5734 5735 5736 5737 5738 5741 5744 5747 5748 5749 5749 5750 5750 5750 5750 5750 5750 5750 5750 5751 5752 5754 5754 5755 5757 5758 5759 5759 5760 5760 5761 5762 5762 5763 5763 5764 5765 5765 5765 5766 5767 5769 5770 5771 5772 5773 5773 5774 5775 5776 5777 5778 5779 5779 5780
5691 5692 5694 5696 5697 5699 5701 5702 5703 5705 5706 5707 5708 5708 5709 5710 5712 5714 5715 5716 5718 5720 5723 5725 5724 5724 5725 5726 5728 5729 5730 5731 5733 5734 5735 5737 5740 5742 5744 5745 5746 5747 5747 5748 5748 5748 5748 5748 5748 5748 5749 5751 5752 5753 5754 5756 5757 5758 5758 5758 5759 5759 5760 5760 5761 5762 5762 5763 5763 5764 5765 5766 5767 5768 5769 5770 5771 5771 5772 5773 5774 5775 5776 5777 5777 5777
5688 5690 5693 5694 5696 5697 5700 5701 5702 5703 5704 5705 5706 5706 5707 5709 5711 5712 5714 5715 5716 5718 5721 5723 5721 5721 5722 5724 5725 5727 5728 5729 5731 5732 5734 5735 5737 5738 5740 5742 5743 5744 5745 5746 5746 5746 5746 5746 5746 5746 5748 5750 5751 5752 5753 5755 5755 5756 5756 5756 5757 5757 5758 5759 5759 5760 5761 5762 5763 5763 5764 5765 5766 5766 5767 5768 5768 5769 5770 5770 5771 5773 5774 5774 5775 5775
5686 5688 5691 5692 5694 5695 5697 5699 5700 5701 5702 5703 5704 5705 5707 5709 5710 5711 5713 5714 5715 5716 5719 5719 5718 5718 5719 5721 5722 5724 5726 5728 5729 5730 5732 5733 5735 5736 5737 5739 5741 5742 5744 5744 5744 5744 5744 5744 5744 5745 5747 5748 5750 5751 5753 5753 5754 5754 5754 5755 5755 5756 5757 5757 5758 5759 5760 5762 5763 5763 5764 5764 5764 5765 5765 5765 5766 5766 5767 5768 5769 5771 5772 5772 5773 5773
5684 5686 5688 5690 5691 5693 5695 5696 5698 5699 5700 5702 5703 5705 5706 5707 5708 5709 5710 5711 5712 5714 5715 5716 5716 5716 5717 5717 5718 5721 5724 5726 5727 5728 5730 5731 5733 5734 5735 5737 5738 5739 5741 5742 5742 5743 5743 5743 5742 5743 5744 5746 5748 5750 5752 5752 5753 5753 5753 5754 5754 5754 5756 5757 5758 5759 5760 5761 5762 5763 5763 5763 5763 5763 5762 5762 5763 5764 5765 5766 5767 5768 5769 5770 5770 5770
5681 5683 5685 5687 5689 5690 5691 5693 5695 5696 5697 5699 5701 5701 5703 5704 5705 5707 5707 5708 5710 5712 5713 5713 5714 5714 5714 5715 5715 5718 5721 5723 5725 5727 5728 5729 5731 5732 5733 5734 5734 5735 5737 5739 5740 5741 5741 5741 5740 5740 5740 5742 5745 5748 5750 5751 5752 5752 5752 5753 5753 5753 5754 5755 5756 5757 5758 5759 5761 5761 5761 5761 5761 5761 5761 5760 5760 5761 5762 5763 5764 5765 5766 5767 5767 5768
5677 5680 5683 5685 5686 5688 5689 5690 5691 5693 5694 5696 5697 5698 5700 5701 5702 5704 5706 5707 5709 5710 5710 5711 5712 5712 5712 5713 5714 5716 5719 5721 5723 5724 5725 5726 5728 5729 5730 5730 5730 5732 5734 5736 5737 5739 5738 5737 5737 5737 5737 5739 5742 5744 5746 5747 5748 5749 5750 5751 5751 5752 5752 5753 5754 5755 5755 5756 5758 5759 5759 5759 5759 5759 5759 5759 5759 5759 5760 5761 5761 5762 5763 5763 5764 5765
5675 5677 5681 5683 5684 5686 5687 5687 5689 5690 5691 5694 5695 5696 5698 5698 5699 5701 5703 5705 5707 5708 5708 5709 5709 5710 5710 5711 5712 5715 5718 5720 5721 5722 5722 5723 5724 5726 5727 5728 5728 5730 5732 5733 5735 5736 5735 5734 5735 5735 5735 5736 5738 5740 5741 5743 5744 5745 5746 5747 5748 5750 5751 5752 5753 5753 5753 5754 5755 5756 5757 5757 5757 5757 5758 5758 5758 5758 5758 5758 5758 5759 5759 5760 5761 5761
5672 5674 5678 5681 5682 5683 5684 5685 5686 5687 5688 5691 5692 5693 5695 5696 5697 5699 5700 5701 5703 5705 5706 5707 5707 5708 5709 5709 5711 5713 5716 5718 5719 5720 5721 5721 5722 5723 5725 5725 5725 5727 5729 5730 5732 5732 5732 5732 5732 5732 5734 5736 5737 5737 5738 5739 5740 5742 5743 5745 5746 5748 5749 5750 5751 5752 5752 5752 5752 5753 5754 5753 5753 5754 5755 5755 5755 5755 5756 5756 5756 5756 5757 5757 5758 5758
5669 5671 5675 5679 5680 5681 5681 5681 5683 5685 5686 5688 5690 5691 5693 5695 5695 5697 5698 5699 5700 5702 5703 5705 5706 5706 5707 5708 5709 5711 5714 5715 5717 5718 5719 5720 5721 5721 5722 5722 5722 5723 5724 5726 5727 5729 5729 5729 5728 5730 5732 5735 5735 5735 5735 5736 5738 5739 5741 5742 5744 5746 5748 5749 5749 5750 5750 5750 5750 5751 5751 5751 5751 5751 5752 5753 5753 5753 5753 5754 5754 5754 5755 5755 5756 5756
5667 5668 5671 5675 5677 5678 5678 5678 5680 5682 5684 5685 5687 5689 5691 5692 5693 5695 5696 5698 5699 5699 5701 5702 5703 5704 5705 5707 5708 5709 5711 5713 5714 5715 5716 5718 5718 5719 5719 5720 5720 5721 5721 5722 5724 5726 5726 5726 5726 5727 5730 5732 5733 5733 5733 5734 5735 5736 5738 5740 5741 5742 5744 5746 5747 5748 5748 5748 5748 5749 5749 5750 5751 5751 5751 5751 5751 5750 5750 5750 5751 5752 5753 5754 5754 5755
5665 5666 5669 5672 5674 5675 5676 5676 5677 5679 5681 5682 5683 5686 5688 5689 5690 5692 5694 5696 5696 5697 5698 5700 5701 5703 5704 5705 5706 5708 5709 5711 5712 5713 5714 5715 5716 5717 5717 5718 5719 5720 5720 5721 5722 5723 5723 5724 5725 5726 5728 5730 5732 5732 5733 5733 5735 5736 5737 5739 5740 5740 5741 5742 5743 5744 5745 5745 5746 5746 5747 5748 5749 5749 5749 5748 5748 5747 5747 5747 5748 5749 5750 5751 5752 5752
5662 5664 5666 5669 5670 5672 5673 5673 5674 5675 5678 5680 5681 5683 5685 5687 5688 5689 5691 5693 5694 5694 5696 5697 5698 5701 5702 5703 5704 5706 5707 5709 5710 5711 5712 5712 5713 5715 5715 5716 5717 5718 5720 5721 5721 5721 5722 5723 5724 5725 5726 5728 5729 5731 5732 5733 5734 5735 5736 5738 5739 5739 5740 5740 5740 5741 5742 5743 5743 5744 5745 5745 5745 5745 5745 5745 5745 5745 5745 5745 5746 5746 5747 5748 5748 5749
5660 5661 5663 5666 5667 5669 5670 5671 5672 5673 5675 5677 5678 5680 5682 5684 5685 5686 5688 5689 5691 5692 5693 5695 5697 5698 5699 5700 5702 5703 5705 5706 5707 5708 5708 5709 5711 5712 5713 5714 5714 5715 5718 5720 5720 5721 5721 5722 5723 5724 5725 5725 5726 5728 5730 5731 5732 5732 5733 5734 5736 5737 5738 5738 5738 5739 5740 5741 5741 5742 5743 5743 5742 5742 5742 5742 5743 5743 5743 5743 5743 5744 5744 5745 5745 5746
5656 5657 5660 5663 5665 5666 5667 5668 5669 5670 5671 5673 5675 5676 5678 5680 5682 5683 5685 5686 5687 5689 5691 5693 5695 5697 5697 5698 5699 5700 5702 5703 5704 5705 5706 5707 5708 5708 5710 5712 5712 5713 5715 5717 5718 5718 5719 5719 5720 5721 5722 5723 5724 5726 5727 5729 5729 5729 5730 5732 5733 5734 5735 5735 5736 5737 5738 5738 5738 5739 5740 5740 5740 5740 5740 5741 5742 5741 5741 5741 5741 5741 5741 5742 5742 5743
5654 5655 5657 5659 5661 5663 5664 5665 5666 5667 5667 5669 5672 5673 5675 5677 5679 5680 5682 5683 5684 5686 5688 5690 5693 5694 5695 5696 5697 5698 5700 5701 5702 5703 5704 5706 5706 5706 5708 5709 5709 5710 5712 5713 5714 5715 5715 5716 5718 5719 5721 5722 5723 5724 5725 5726 5726 5727 5729 5729 5730 5731 5732 5733 5733 5734 5734 5735 5736 5737 5737 5737 5738 5738 5738 5739 5739 5738 5737 5737 5737 5738 5738 5739 5739 5740
5651 5653 5654 5655 5656 5659 5660 5661 5662 5662 5663 5665 5668 5670 5673 5675 5677 5678 5679 5680 5681 5683 5684 5687 5689 5690 5692 5693 5694 5696 5698 5698 5700 5702 5703 5704 5705 5705 5706 5707 5707 5708 5708 5710 5711 5711 5712 5713 5715 5716 5718 5719 5720 5721 5722 5722 5723 5725 5726 5726 5727 5729 5729 5730 5731 5731 5732 5733 5734 5734 5734 5734 5735 5735 5735 5736 5735 5734 5734 5734 5735 5736 5736 5737 5737 5737
5648 5649 5650 5650 5650 5653 5657 5658 5659 5659 5660 5663 5666 5668 5670 5673 5674 5675 5676 5678 5679 5680 5682 5683 5685 5687 5688 5690 5691 5693 5694 5695 5696 5699 5700 5701 5702 5702 5702 5703 5704 5705 5706 5707 5707 5707 5708 5709 5710 5712 5714 5715 5716 5717 5717 5718 5719 5721 5722 5723 5724 5725 5726 5727 5728 5729 5730 5730 5731 5731 5731 5732 5733 5732 5733 5733 5732 5732 5733 5732 5732 5733 5734 5734 5735 5735
5645 5646 5646 5646 5647 5650 5654 5655 5655 5656 5659 5661 5662 5663 5666 5669 5671 5672 5674 5675 5677 5678 5679 5680 5682 5684 5686 5687 5688 5690 5691 5691 5693 5695 5697 5698 5699 5699 5700 5700 5700 5701 5703 5703 5703 5704 5705 5706 5707 5708 5709 5710 5711 5712 5713 5714 5715 5716 5718 5719 5720 5721 5722 5723 5724 5725 5726 5726 5727 5728 5728 5729 5730 5730 5730 5730 5730 5731 5731 5730 5730 5731 5731 5731 5731 5732
5643 5643 5644 5645 5646 5648 5651 5651 5651 5653 5655 5656 5657 5659 5662 5665 5667 5670 5671 5673 5675 5676 5677 5679 5680 5682 5683 5684 5685 5687 5689 5689 5690 5691 5693 5694 5695 5696 5697 5698 5698 5698 5699 5700 5700 5701 5702 5704 5705 5705 5706 5707 5707 5708 5709 5710 5711 5712 5713 5715 5717 5718 5719 5720 5721 5722 5722 5723 5724 5725 5725 5725 5726 5726 5726 5727 5727 5728 5729 5729 5730 5731 5730 5729 5729 5730
5642 5642 5643 5644 5644 5646 5648 5648 5648 5649 5651 5653 5654 5657 5659 5661 5664 5666 5668 5670 5672 5673 5674 5675 5677 5678 5680 5681 5683 5684 5686 5687 5688 5689 5689 5690 5692 5693 5694 5695 5695 5696 5697 5698 5698 5699 5701 5702 5702 5702 5703 5704 5705 5705 5705 5706 5708 5708 5709 5711 5713 5714 5715 5717 5718 5719 5719 5720 5720 5721 5721 5721 5722 5722 5722 5723 5724 5725 5726 5727 5727 5728 5728 5726 5726 5728
5640 5640 5641 5642 5643 5644 5646 5646 5646 5647 5649 5650 5652 5653 5656 5658 5660 5662 5664 5666 5668 5669 5670 5672 5674 5675 5677 5678 5679 5681 5683 5683 5685 5687 5687 5687 5688 5690 5691 5692 5692 5693 5694 5696 5697 5698 5698 5699 5699 5700 5701 5702 5703 5703 5703 5703 5703 5704 5705 5706 5707 5709 5711 5712 5714 5715 5715 5716 5716 5717 5717 5718 5718 5719 5719 5720 5721 5722 5723 5723 5724 5724 5724 5723 5723 5725
5637 5638 5639 5640 5641 5642 5643 5644 5646 5647 5648 5649 5649 5650 5653 5655 5656 5658 5660 5662 5664 5666 5667 5669 5670 5672 5674 5675 5676 5677 5679 5679 5681 5684 5684 5684 5685 5686 5686 5687 5688 5689 5691 5692 5693 5695 5695 5696 5696 5698 5698 5698 5699 5700 5700 5700 5701 5701 5702 5702 5703 5703 5705 5706 5708 5709 5710 5711 5712 5713 5714 5714 5715 5715 5716 5716 5717 5717 5718 5718 5719 5719 5720 5720 5720 5721
5635 5636 5637 5638 5639 5640 5641 5642 5644 5645 5646 5646 5647 5648 5651 5653 5653 5654 5656 5658 5660 5662 5664 5664 5665 5668 5670 5671 5672 5673 5675 5676 5677 5678 5679 5680 5681 5681 5681 5682 5683 5685 5686 5688 5689 5690 5691 5692 5693 5694 5695 5695 5695 5696 5697 5698 5698 5699 5700 5701 5701 5700 5701 5702 5703 5703 5704 5706 5707 5708 5709 5710 5711 5711 5711 5712 5712 5712 5713 5713 5714 5714 5715 5715 5715 5716
5632 5634 5635 5636 5637 5638 5639 5640 5642 5643 5643 5644 5645 5647 5649 5650 5651 5652 5653 5655 5657 5659 5660 5661 5661 5663 5665 5666 5667 5669 5671 5673 5674 5673 5673 5675 5676 5677 5677 5678 5679 5680 5682 5684 5685 5686 5687 5688 5689 5690 5691 5691 5691 5692 5693 5694 5694 5695 5696 5697 5698 5698 5698 5699 5699 5699 5699 5700 5702 5703 5704 5705 5706 5707 5707 5707 5708 5708 5708 5708 5709 5709 5709 5710 5710 5710
5629 5631 5632 5633 5634 5636 5637 5637 5639 5640 5641 5642 5643 5645 5646 5647 5648 5650 5652 5653 5655 5656 5657 5658 5658 5659 5661 5662 5663 5665 5667 5668 5670 5670 5669 5670 5671 5672 5673 5674 5675 5677 5678 5679 5680 5682 5682 5684 5685 5685 5686 5687 5688 5688 5689 5690 5691 5691 5692 5693 5694 5694 5694 5695 5696 5696 5696 5696 5696 5697 5698 5699 5700 5701 5701 5702 5702 5702 5703 5703 5703 5704 5704 5704 5704 5705
5627 5628 5630 5631 5632 5633 5634 5635 5636 5637 5638 5640 5641 5642 5644 5645 5646 5648 5650 5651 5653 5654 5655 5656 5656 5657 5658 5659 5660 5661 5662 5663 5664 5665 5665 5665 5666 5667 5668 5669 5670 5671 5672 5673 5674 5676 5677 5679 5680 5681 5682 5683 5684 5684 5685 5687 5687 5688 5688 5689 5690 5690 5690 5691 5692 5692 5692 5692 5692 5692 5692 5693 5693 5694 5694 5695 5695 5695 5695 5695 5696 5696 5697 5697 5697 5698
5625 5626 5627 5629 5630 5631 5632 5633 5634 5635 5636 5637 5638 5639 5641 5642 5644 5645 5647 5649 5650 5651 5652 5653 5654 5655 5657 5658 5658 5657 5658 5659 5659 5659 5660 5660 5661 5662 5663 5664 5665 5666 5666 5667 5669 5670 5671 5673 5674 5675 5676 5677 5679 5680 5681 5682 5683 5684 5684 5685 5686 5686 5687 5687 5688 5688 5688 5688 5688 5688 5688 5688 5688 5688 5688 5689 5689 5689 5689 5689 5689 5689 5689 5689 5689 5689
5623 5624 5625 5626 5627 5628 5629 5630 5631 5632 5633 5634 5635 5636 5638 5639 5641 5642 5644 5645 5647 5647 5649 5650 5651 5652 5654 5656 5655 5654 5654 5655 5655 5655 5656 5657 5657 5658 5659 5660 5661 5661 5662 5663 5664 5664 5666 5667 5668 5668 5670 5671 5673 5674 5675 5676 5677 5678 5680 5681 5681 5682 5682 5682 5683 5683 5682 5682 5682 5682 5682 5682 5682 5682 5682 5683 5683 5683 5682 5682 5682 5682 5682 5682 5682 5682
5621 5623 5623 5624 5625 5626 5627 5628 5629 5629 5630 5631 5632 5633 5634 5636 5637 5639 5640 5641 5643 5644 5645 5647 5648 5649 5651 5652 5651 5650 5650 5651 5651 5652 5653 5654 5655 5655 5656 5657 5657 5658 5658 5659 5659 5660 5661 5662 5662 5663 5665 5666 5667 5668 5669 5670 5671 5672 5673 5674 5674 5675 5675 5675 5675 5675 5675 5675 5675 5675 5675 5675 5675 5675 5675 5675 5675 5675 5675 5674 5674 5674 5674 5674 5674 5674
5619 5620 5621 5622 5623 5623 5624 5625 5626 5626 5627 5628 5629 5630 5631 5632 5633 5635 5636 5637 5639 5640 5641 5642 5644 5645 5646 5647 5646 5645 5646 5646 5647 5649 5650 5651 5651 5652 5653 5653 5654 5654 5655 5655 5655 5657 5658 5658 5658 5659 5660 5661 5662 5662 5663 5664 5664 5665 5666 5666 5667 5667 5667 5667 5668 5668 5668 5668 5668 5668 5668 5668 5668 5669 5668 5668 5668 5667 5667 5667 5667 5666 5666 5666 5666 5666
5617 5617 5618 5619 5620 5620 5620 5621 5622 5623 5624 5625 5626 5626 5627 5628 5629 5631 5632 5633 5635 5636 5637 5638 5639 5640 5641 5641 5641 5641 5641 5642 5643 5645 5646 5647 5647 5648 5648 5648 5648 5649 5650 5651 5652 5652 5653 5653 5653 5654 5655 5656 5657 5657 5657 5658 5659 5659 5659 5659 5660 5660 5660 5660 5661 5661 5661 5662 5662 5662 5662 5662 5662 5661 5661 5661 5661 5661 5660 5660 5660 5659 5659 5659 5658 5658
5614 5615 5615 5615 5616 5617 5617 5618 5619 5619 5620 5621 5622 5622 5623 5624 5625 5626 5627 5628 5630 5631 5632 5633 5634 5635 5635 5636 5636 5636 5637 5638 5639 5641 5641 5642 5643 5643 5643 5643 5643 5643 5645 5647 5647 5648 5648 5649 5649 5649 5650 5651 5651 5652 5652 5652 5653 5653 5653 5653 5653 5653 5653 5654 5654 5654 5655 5655 5655 5655 5655 5655 5654 5654 5654 5654 5654 5653 5653 5653 5653 5653 5652 5652 5651 5651
5612 5612 5613 5613 5613 5614 5614 5615 5615 5615 5616 5616 5617 5618 5619 5620 5621 5622 5622 5623 5624 5625 5626 5627 5628 5629 5630 5630 5631 5632 5633 5634 5635 5636 5637 5638 5639 5639 5639 5638 5638 5638 5640 5641 5642 5642 5643 5643 5643 5643 5644 5645 5646 5646 5646 5646 5647 5647 5646 5646 5646 5647 5647 5648 5648 5647 5647 5647 5647 5647 5647 5647 5646 5646 5645 5645 5645 5645 5645 5644 5644 5644 5644 5643 5642 5642
5610 5610 5610 5610 5610 5611 5611 5612 5612 5612 5612 5612 5613 5614 5615 5615 5616 5617 5617 5618 5619 5620 5621 5622 5623 5624 5625 5624 5624 5625 5627 5628 5629 5630 5632 5633 5633 5633 5633 5633 5633 5633 5634 5636 5637 5637 5637 5637 5636 5637 5639 5639 5639 5639 5640 5640 5640 5640 5640 5640 5640 5641 5641 5641 5641 5640 5640 5640 5640 5639 5639 5639 5638 5638 5637 5637 5636 5636 5635 5634 5634 5634 5633 5632 5632 5631
5606 5607 5607 5607 5608 5608 5608 5609 5608 5608 5607 5608 5609 5610 5610 5611 5611 5612 5612 5613 5614 5615 5616 5617 5618 5619 5619 5618 5618 5619 5620 5621 5623 5624 5626 5626 5627 5627 5626 5626 5627 5627 5628 5630 5631 5631 5631 5630 5630 5631 5633 5633 5632 5632 5633 5633 5633 5633 5633 5634 5634 5634 5633 5633 5633 5633 5633 5633 5632 5632 5631 5631 5630 5630 5629 5629 5628 5627 5626 5625 5624 5624 5623 5622 5621 5620
5603 5604 5604 5604 5604 5605 5605 5605 5605 5604 5604 5604 5604 5605 5606 5606 5606 5607 5607 5607 5608 5609 5610 5611 5612 5613 5613 5613 5613 5613 5613 5615 5616 5617 5618 5619 5619 5619 5619 5619 5620 5621 5622 5623 5624 5623 5623 5623 5624 5625 5626 5625 5625 5626 5626 5625 5625 5626 5626 5626 5626 5626 5626 5626 5626 5626 5625 5625 5625 5624 5624 5623 5623 5622 5622 5621 5620 5619 5618 5616 5615 5614 5613 5612 5611 5610
5602 5601 5601 5601 5601 5602 5602 5601 5601 5601 5601 5601 5600 5600 5600 5601 5602 5602 5602 5602 5602 5603 5604 5604 5605 5606 5606 5607 5607 5607 5607 5609 5610 5610 5610 5611 5611 5612 5612 5613 5614 5614 5615 5616 5616 5616 5616 5616 5617 5618 5619 5618 5619 5619 5618 5618 5619 5619 5619 5619 5619 5619 5619 5619 5618 5618 5617 5617 5617 5616 5615 5615 5614 5614 5613 5612 5612 5611 5609 5607 5604 5603 5603 5603 5602 5599